Seldovia, AK

6:12 AM AKDT on August 30, 2016 (GMT -0800)
Seldovia

Weather History for PASO - January, 2013

Change the Weather History Date:

Monday, January 7, 2013

  Actual Average (PAHO) Record (PAHO)
Temperature  
Mean Temperature 32 °F -  
Max Temperature 36 °F 28 °F 47 °F (1942)
Min Temperature 28 °F 17 °F -12 °F (1975)
Degree Days  
Heating Degree Days 33    
Moisture  
Dew Point 31 °F    
Average Humidity 93    
Maximum Humidity 100    
Minimum Humidity 86    
Precipitation  
Precipitation 0.37 in - - ()
Sea Level Pressure  
Sea Level Pressure 29.07 in    
Wind  
Wind Speed 3 mph (NNE)    
Max Wind Speed 14 mph    
Max Gust Speed 23 mph    
Visibility 5 miles    
Events Rain , Snow    
Averages and records for this station are not official NWS values.
T = Trace of Precipitation, MM = Missing Value Source: NWS Daily Summary

Daily Weather History Graph

Daily Weather History Graph

Search for Another Location

Airport or City:

Trip Planner

Search our weather history database for the weather conditions in past years. The results will help you decide how hot, cold, wet, or windy it might be!

Date:

Astronomy

Jan. 07, 2013 Rise Set
Actual Time 9:59 AM AKST 4:27 PM AKST
Civil Twilight 9:05 AM AKST 5:21 PM AKST
Nautical Twilight 8:11 AM AKST 6:15 PM AKST
Astronomical Twilight 7:21 AM AKST 7:05 PM AKST
Moon 5:18 AM AKST (1/7) 12:59 PM AKST (1/7)
Length of Visible Light 8h 15m
Length of Day
6h 28m
Waning Crescent, 21% of the Moon is Illuminated
Jan 7
Waning Crescent
Jan 11
New
Jan 18
First Quarter
Jan 26
Full
Feb 3
Last Quarter

Hourly Weather History & Observations

Time (AKST) Temp. Windchill Dew Point Humidity Pressure Visibility Wind Dir Wind Speed Gust Speed Precip Events Conditions
12:51 AM 33.8 °F - 32.0 °F 93% 28.92 in 7.0 mi Calm Calm - 0.01 in Rain Light Rain
12:53 AM 33.1 °F - 32.0 °F 96% 28.92 in 7.0 mi Calm Calm - 0.01 in Rain Light Rain
1:19 AM 33.8 °F - 32.0 °F 93% 28.93 in 8.0 mi Calm Calm - 0.00 in Rain Light Rain
1:33 AM 33.8 °F - 32.0 °F 93% 28.92 in 3.0 mi Calm Calm - 0.01 in Snow Light Snow
1:50 AM 33.8 °F - 32.0 °F 93% 28.92 in 2.0 mi Calm Calm - 0.02 in Snow Light Snow
1:53 AM 33.1 °F - 32.0 °F 96% 28.92 in 2.5 mi Calm Calm - 0.02 in Snow Light Snow
2:03 AM 33.8 °F 29.6 °F 32.0 °F 93% 28.92 in 1.5 mi Variable 4.6 mph - 0.02 in Snow Light Snow
2:28 AM 33.8 °F - 32.0 °F 93% 28.92 in 1.0 mi Calm Calm - 0.06 in Snow Light Snow
2:39 AM 33.8 °F - 32.0 °F 93% 28.92 in 1.5 mi Calm Calm - 0.07 in Snow Light Snow
2:45 AM 33.8 °F - 32.0 °F 93% 28.92 in 2.0 mi Calm Calm - 0.07 in Snow Light Snow
2:53 AM 34.0 °F 28.8 °F 32.0 °F 92% 28.92 in 6.0 mi Variable 5.8 mph - 0.07 in Snow Light Snow
3:53 AM 34.0 °F 26.0 °F 32.0 °F 92% 28.92 in 3.0 mi NNE 10.4 mph - 0.04 in Snow Light Snow
3:58 AM 33.8 °F 25.3 °F 32.0 °F 93% 28.91 in 1.8 mi North 11.5 mph - 0.01 in Snow Light Snow
4:11 AM 33.8 °F 24.3 °F 32.0 °F 93% 28.91 in 2.0 mi NNE 13.8 mph 20.7 mph 0.03 in Snow Light Snow
4:38 AM 35.6 °F 27.5 °F 32.0 °F 87% 28.90 in 4.0 mi NNE 11.5 mph 19.6 mph 0.05 in Snow Light Snow
4:53 AM 35.1 °F 26.4 °F 32.0 °F 89% 28.91 in 4.0 mi NNE 12.7 mph 20.7 mph 0.06 in Snow Light Snow
5:45 AM 35.6 °F 27.5 °F 32.0 °F 87% 28.91 in 6.0 mi NNE 11.5 mph 23.0 mph 0.01 in Snow Light Snow
5:53 AM 35.1 °F 26.9 °F 32.0 °F 89% 28.92 in 5.0 mi NNE 11.5 mph - 0.01 in Snow Light Snow
6:01 AM 33.8 °F 25.3 °F 32.0 °F 93% 28.91 in 2.5 mi NNE 11.5 mph - 0.01 in Snow Light Snow
6:19 AM 35.6 °F 27.5 °F 32.0 °F 87% 28.92 in 5.0 mi NNE 11.5 mph - 0.02 in Snow Light Snow
6:44 AM 33.8 °F 24.3 °F 32.0 °F 93% 28.92 in 2.0 mi North 13.8 mph - 0.04 in Snow Light Snow
6:51 AM 33.8 °F 25.3 °F 32.0 °F 93% 28.92 in 1.2 mi North 11.5 mph - 0.06 in Snow Light Snow
6:53 AM 34.0 °F 25.5 °F 32.0 °F 92% 28.92 in 1.5 mi North 11.5 mph - 0.06 in Snow Light Snow
6:59 AM 33.8 °F 24.3 °F 32.0 °F 93% 28.92 in 3.0 mi NNE 13.8 mph 19.6 mph 0.00 in Snow Light Snow
7:15 AM 33.8 °F 26.4 °F 32.0 °F 93% 28.93 in 1.8 mi NNE 9.2 mph - 0.02 in Snow Light Snow
7:44 AM 35.6 °F 29.2 °F 32.0 °F 87% 28.95 in 4.0 mi NNE 8.1 mph - 0.05 in Snow Light Snow
7:53 AM 35.1 °F 27.9 °F 32.0 °F 89% 28.96 in 3.0 mi NNE 9.2 mph 16.1 mph 0.06 in Rain Light Rain
8:01 AM 35.6 °F 29.9 °F 32.0 °F 87% 28.96 in 2.0 mi Variable 6.9 mph 16.1 mph 0.02 in Snow Light Snow
8:17 AM 35.6 °F 29.9 °F 32.0 °F 87% 28.95 in 4.0 mi NNE 6.9 mph - 0.04 in Snow Light Snow
8:53 AM 33.1 °F - 32.0 °F 96% 28.98 in 10.0 mi Calm Calm - 0.04 in Rain Light Rain
9:53 AM 36.0 °F 29.6 °F 32.0 °F 86% 29.01 in 10.0 mi NE 8.1 mph - 0.00 in   Mostly Cloudy
10:53 AM 36.0 °F 33.3 °F 32.0 °F 86% 29.03 in 10.0 mi Variable 3.5 mph - 0.00 in   Mostly Cloudy
11:53 AM 34.0 °F - 33.1 °F 96% 29.05 in 10.0 mi Calm Calm - N/A   Overcast
12:53 PM 34.0 °F - 33.1 °F 96% 29.08 in 10.0 mi Calm Calm - N/A   Mostly Cloudy
1:53 PM 33.1 °F - 32.0 °F 96% 29.10 in 10.0 mi Calm Calm - N/A   Partly Cloudy
2:03 PM 33.8 °F - 32.0 °F 93% 29.10 in 10.0 mi Calm Calm - N/A   Scattered Clouds
2:51 PM 33.8 °F - 32.0 °F 93% 29.12 in 1.8 mi Calm Calm - N/A   Scattered Clouds
2:53 PM 33.1 °F - 32.0 °F 96% 29.12 in 1.5 mi Calm Calm - N/A   Scattered Clouds
2:59 PM 33.8 °F - 32.0 °F 93% 29.12 in 2.0 mi Calm Calm - N/A   Mostly Cloudy
3:37 PM 33.8 °F - 30.2 °F 87% 29.14 in 8.0 mi Calm Calm - N/A   Scattered Clouds
3:53 PM 32.0 °F - 30.9 °F 96% 29.15 in 2.0 mi Calm Calm - N/A   Scattered Clouds
4:20 PM 32.0 °F - 30.2 °F 93% 29.16 in 1.8 mi Calm Calm - N/A   Scattered Clouds
4:29 PM 32.0 °F - 30.2 °F 93% 29.16 in 3.0 mi Calm Calm - N/A   Partly Cloudy
4:53 PM 32.0 °F - 30.0 °F 92% 29.17 in 6.0 mi Calm Calm - N/A   Partly Cloudy
5:02 PM 30.2 °F - 30.2 °F 100% 29.18 in 1.5 mi Calm Calm - N/A   Scattered Clouds
5:06 PM 30.2 °F - 30.2 °F 100% 29.18 in 0.8 mi Calm Calm - N/A   Mist
5:22 PM 32.0 °F - 30.2 °F 93% 29.19 in 0.8 mi Calm Calm - N/A   Mist
5:38 PM 32.0 °F - 30.2 °F 93% 29.19 in 2.0 mi Calm Calm - N/A   Mostly Cloudy
5:46 PM 30.2 °F - 30.2 °F 100% 29.19 in 3.0 mi Calm Calm - N/A   Mostly Cloudy
5:53 PM 30.9 °F - 30.0 °F 96% 29.20 in 4.0 mi Calm Calm - N/A   Mostly Cloudy
6:07 PM 30.2 °F - 30.2 °F 100% 29.21 in 6.0 mi Calm Calm - N/A   Mostly Cloudy
6:18 PM 30.2 °F - 28.4 °F 93% 29.21 in 2.5 mi Calm Calm - N/A   Scattered Clouds
6:36 PM 30.2 °F - 28.4 °F 93% 29.22 in 1.8 mi Calm Calm - N/A   Scattered Clouds
6:47 PM 30.2 °F - 28.4 °F 93% 29.22 in 3.0 mi Calm Calm - N/A   Partly Cloudy
6:53 PM 30.9 °F - 28.9 °F 92% 29.23 in 8.0 mi Calm Calm - N/A   Partly Cloudy
7:53 PM 30.9 °F - 28.9 °F 92% 29.26 in 9.0 mi Calm Calm - N/A   Clear
7:59 PM 30.2 °F - 28.4 °F 93% 29.26 in 2.5 mi Calm Calm - N/A   Partly Cloudy
8:10 PM 30.2 °F - 28.4 °F 93% 29.26 in 9.0 mi Calm Calm - N/A   Partly Cloudy
8:53 PM 30.0 °F - 28.0 °F 92% 29.29 in 10.0 mi Calm Calm - N/A   Clear
9:42 PM 28.4 °F - 28.4 °F 100% 29.31 in 10.0 mi Calm Calm - N/A   Mostly Cloudy
9:53 PM 30.0 °F - 28.0 °F 92% 29.32 in 10.0 mi Calm Calm - N/A   Mostly Cloudy
10:06 PM 30.2 °F - 28.4 °F 93% 29.32 in 10.0 mi Calm Calm - N/A   Partly Cloudy
10:53 PM 28.9 °F - 28.0 °F 96% 29.34 in 10.0 mi Calm Calm - N/A   Mostly Cloudy
11:03 PM 30.2 °F 24.3 °F 28.4 °F 93% 29.34 in 10.0 mi South 5.8 mph - N/A   Mostly Cloudy
11:53 PM 30.0 °F - 28.0 °F 92% 29.37 in 10.0 mi Calm Calm - N/A   Overcast